Waarnemingen

Advertentie
Mijn weer
UFS TW Ems, Duitsland (10004): temperatuur & dauwpunt: 19.02.2018 20:00:00 - 25.02.2018 20:00:00 (CET)UFS TW Ems, Duitsland (10004): windsnelheid & windstoten: 19.02.2018 20:00:00 - 25.02.2018 20:00:00 (CET)UFS TW Ems, Duitsland (10004): windrichting: 19.02.2018 20:00:00 - 25.02.2018 20:00:00 (CET)UFS TW Ems, Duitsland (10004): luchtdruk: 19.02.2018 20:00:00 - 25.02.2018 20:00:00 (CET)UFS TW Ems, Duitsland (10004): zicht: 19.02.2018 20:00:00 - 25.02.2018 20:00:00 (CET)UFS TW Ems, Duitsland (10004): Zonneschijnduur: 19.02.2018 20:00:00 - 25.02.2018 20:00:00 (CET)
Datum & Tijd tt [°C] td [°C] ff [km/u] ff [kn] fx [km/u] fx [kn] dd ppp [hPa] vv [km] sd [min]
25.02.2018 20:00:00 -1,4 -5,5 40 21 - - ONO 1034,6 9 0
25.02.2018 19:00:00 -2,3 -5,2 43 23 - - NO 1034,3 1,8 0
25.02.2018 18:00:00 -1,8 -4,4 36 19 54 29 ONO 1033,8 7 0
25.02.2018 17:00:00 -1,1 -3,8 36 19 54 29 ONO 1033,7 7 0
25.02.2018 16:00:00 -1,2 -4,5 36 19 - - NO 1034,0 8 0
25.02.2018 15:00:00 -0,3 -5,6 25 14 - - ONO 1034,1 10 0
25.02.2018 14:00:00 -0,8 -3,8 18 10 - - ONO 1034,5 10 0
25.02.2018 13:00:00 -1,3 -3,4 25 14 - - ONO 1034,7 3,6 6
25.02.2018 12:00:00 -0,6 -6,3 22 12 - - O 1035,1 10 12
25.02.2018 11:00:00 -0,4 -5,5 22 12 - - O 1035,3 10 48
25.02.2018 10:00:00 -0,7 -7,0 22 12 - - O 1035,4 10 36
25.02.2018 09:00:00 -0,9 -6,7 25 14 - - O 1035,2 10 18
25.02.2018 08:00:00 -0,9 -6,8 29 16 - - O 1034,8 10 0
25.02.2018 07:00:00 - - - - - - - - - -
25.02.2018 06:00:00 -0,9 -6,7 29 16 50 27 O 1034,0 10 0
25.02.2018 05:00:00 -0,6 -6,3 36 19 50 27 OZO 1034,1 10 0
25.02.2018 04:00:00 -0,4 -6,6 40 21 - - OZO 1033,9 10 0
25.02.2018 03:00:00 - - - - - - - - - -
25.02.2018 02:00:00 0,5 -6,7 40 21 50 27 O 1034,0 10 0
25.02.2018 01:00:00 0,3 -5,9 36 19 - - O 1034,1 10 0
25.02.2018 00:00:00 0,4 -6,1 40 21 50 27 O 1033,6 10 0
24.02.2018 23:00:00 0,7 -6,0 40 21 54 29 O 1033,2 10 0
24.02.2018 22:00:00 1,0 -5,2 43 23 - - O 1033,0 10 0
24.02.2018 21:00:00 - - - - - - - - - -
24.02.2018 20:00:00 1,2 -4,5 47 25 61 33 O 1031,9 10 0
24.02.2018 19:00:00 1,5 -4,5 43 23 - - O 1031,8 10 0
24.02.2018 18:00:00 1,5 -4,6 43 23 54 29 O 1031,3 10 42
24.02.2018 17:00:00 - - - - - - - - - -
24.02.2018 16:00:00 1,8 -3,1 43 23 - - O 1031,4 10 0
24.02.2018 15:00:00 1,9 -2,3 43 23 54 29 O 1031,5 10 0
24.02.2018 14:00:00 1,9 -2,3 43 23 50 27 O 1031,4 10 0
24.02.2018 13:00:00 1,8 -2,0 40 21 - - O 1031,4 10 0
24.02.2018 12:00:00 1,8 -1,8 40 21 54 29 O 1031,4 10 0
24.02.2018 11:00:00 1,7 -1,5 43 23 58 31 O 1031,1 10 0
24.02.2018 10:00:00 1,9 -1,2 43 23 - - O 1030,6 10 0
24.02.2018 09:00:00 1,3 -1,6 43 23 58 31 O 1030,5 10 0
24.02.2018 08:00:00 0,9 -2,4 40 21 50 27 O 1029,9 10 0
24.02.2018 07:00:00 1,1 -2,5 40 21 - - O 1029,6 10 0
24.02.2018 06:00:00 - - - - - - - - - -
24.02.2018 05:00:00 1,1 -3,1 43 23 50 27 O 1028,7 10 0
24.02.2018 04:00:00 1,2 -3,9 43 23 - - O 1028,8 10 0
24.02.2018 03:00:00 - - - - - - - - - -
24.02.2018 02:00:00 1,7 -3,1 43 23 50 27 O 1028,5 10 -
24.02.2018 01:00:00 1,5 -3,7 40 21 - - O 1028,1 10 0
24.02.2018 00:00:00 1,4 -5,0 40 21 50 27 O 1027,9 10 0
23.02.2018 23:00:00 1,6 -4,4 40 21 47 25 O 1027,6 10 0
23.02.2018 22:00:00 1,9 -3,1 40 21 - - O 1027,4 10 0
23.02.2018 21:00:00 2,0 -3,6 36 19 47 25 O 1027,1 10 0
23.02.2018 20:00:00 1,9 -3,5 40 21 50 27 O 1026,7 10 0
23.02.2018 19:00:00 1,9 -3,0 36 19 - - O 1026,7 10 0
23.02.2018 18:00:00 1,7 -2,6 36 19 - - O 1026,7 10 24
23.02.2018 17:00:00 - - - - - - - - - -
23.02.2018 16:00:00 1,4 -3,3 40 21 - - O 1026,8 10 60
23.02.2018 15:00:00 1,7 -5,3 36 19 50 27 O 1026,5 10 60
23.02.2018 14:00:00 - - - - - - - - - -
23.02.2018 13:00:00 - - - - - - - - - -
23.02.2018 12:00:00 1,9 -4,8 29 16 - - O 1027,8 10 60
23.02.2018 11:00:00 2,0 -4,9 29 16 - - O 1027,9 10 54
23.02.2018 10:00:00 2,0 -4,4 29 16 - - O 1027,8 10 18
23.02.2018 09:00:00 1,9 -4,0 29 16 - - O 1027,4 10 6
23.02.2018 08:00:00 1,9 -3,8 29 16 - - O 1027,1 10 0
23.02.2018 07:00:00 2,0 -3,5 25 14 - - O 1026,7 10 0
23.02.2018 06:00:00 2,0 -2,4 22 12 - - O 1026,7 10 0
23.02.2018 05:00:00 2,0 -2,5 22 12 - - O 1026,4 10 0
23.02.2018 04:00:00 2,2 -1,9 22 12 - - O 1026,5 10 0
23.02.2018 03:00:00 2,3 -1,8 25 14 - - O 1026,7 10 0
23.02.2018 02:00:00 2,3 -1,9 25 14 - - O 1026,8 10 0
23.02.2018 01:00:00 2,5 -1,5 25 14 - - O 1026,9 10 0
23.02.2018 00:00:00 2,7 -0,1 29 16 - - O 1026,9 10 0
22.02.2018 23:00:00 3,0 -0,4 25 14 - - O 1026,9 10 0
22.02.2018 22:00:00 3,2 0,4 22 12 - - O 1026,8 10 0
22.02.2018 21:00:00 3,4 1,1 14 8 - - ONO 1027,0 10 0
22.02.2018 20:00:00 3,3 1,2 18 10 - - O 1026,7 10 0
22.02.2018 19:00:00 - - - - - - - - - -
22.02.2018 18:00:00 - - - - - - - - - -
22.02.2018 17:00:00 4,8 2,2 14 8 - - N 1026,2 10 6
22.02.2018 16:00:00 4,5 2,4 14 8 - - N 1026,2 10 36
22.02.2018 15:00:00 4,3 2,1 14 8 - - N 1026,5 - 42
22.02.2018 14:00:00 4,1 1,4 22 12 - - NNW 1026,9 0,5 48
22.02.2018 13:00:00 - - - - - - - - - -
22.02.2018 12:00:00 3,6 -0,4 14 8 - - NW 1027,8 10 0
22.02.2018 11:00:00 - - - - - - - - - -
22.02.2018 10:00:00 3,5 -1,7 7 4 - - NNW 1028,1 10 0
22.02.2018 09:00:00 3,0 -2,2 4 2 - - NW 1028,0 10 0
22.02.2018 08:00:00 2,8 -2,4 4 2 - - NW 1027,8 10 0
22.02.2018 07:00:00 - - - - - - - - - -
22.02.2018 06:00:00 - - - - - - - - - -
22.02.2018 05:00:00 - - - - - - - - - -
22.02.2018 04:00:00 2,8 -2,5 7 4 - - OZO 1028,0 10 0
22.02.2018 03:00:00 2,8 -2,4 4 2 - - ONO 1028,0 10 0
22.02.2018 02:00:00 2,9 -2,2 7 4 - - ONO 1028,1 10 0
22.02.2018 01:00:00 2,9 -2,6 11 6 - - O 1028,4 10 0
22.02.2018 00:00:00 2,8 -2,4 11 6 - - O 1028,5 10 0
21.02.2018 23:00:00 - - - - - - - - - -
21.02.2018 22:00:00 - - - - - - - - - -
21.02.2018 21:00:00 2,7 -2,3 14 8 - - O 1028,5 10 0
21.02.2018 20:00:00 2,6 -2,9 14 8 - - O 1028,4 10 0
21.02.2018 19:00:00 2,5 -2,3 14 8 - - ONO 1028,0 10 0
21.02.2018 18:00:00 - - - - - - - - - -
21.02.2018 17:00:00 - - - - - - - - - -
21.02.2018 16:00:00 - - - - - - - - - -
21.02.2018 15:00:00 - - - - - - - - - -
21.02.2018 14:00:00 2,6 -3,1 14 8 - - ONO 1028,0 10 0
21.02.2018 13:00:00 2,6 -2,5 14 8 - - ONO 1028,3 10 6
21.02.2018 12:00:00 2,7 -2,7 18 10 - - O 1028,3 10 0
21.02.2018 11:00:00 - - - - - - - - - -
21.02.2018 10:00:00 - - - - - - - - - -
21.02.2018 09:00:00 2,8 -2,4 14 8 - - NO 1027,6 10 12
21.02.2018 08:00:00 - - - - - - - - - -
21.02.2018 07:00:00 - - - - - - - - - -
21.02.2018 06:00:00 2,0 -2,0 11 6 - - NO 1027,4 10 -
21.02.2018 05:00:00 - - - - - - - - - -
21.02.2018 04:00:00 3,0 -1,6 14 8 - - ONO 1027,4 10 0
21.02.2018 03:00:00 3,1 -1,0 18 10 - - O 1026,8 10 0
21.02.2018 02:00:00 - - - - - - - - - -
21.02.2018 01:00:00 3,3 -0,3 22 12 - - O 1026,3 9 0
21.02.2018 00:00:00 3,4 -0,4 25 14 - - O 1026,3 9 0
20.02.2018 23:00:00 - - - - - - - - - -
20.02.2018 22:00:00 3,8 -0,1 25 14 - - ONO 1025,8 9 0
20.02.2018 21:00:00 4,0 0,9 22 12 - - ONO 1025,1 7 0
20.02.2018 20:00:00 4,0 0,3 18 10 - - ONO 1024,6 8 0
20.02.2018 19:00:00 3,9 1,1 22 12 - - ONO 1023,8 7 0
20.02.2018 18:00:00 4,0 0,8 22 12 - - ONO 1023,2 8 18
20.02.2018 17:00:00 4,4 0,9 18 10 - - ONO 1022,1 7 60
20.02.2018 16:00:00 4,5 0,7 11 6 - - ONO 1021,8 5 60
20.02.2018 15:00:00 - - - - - - - - - -
20.02.2018 14:00:00 4,2 1,8 11 6 - - O 1021,5 3,5 0
20.02.2018 13:00:00 4,3 1,4 11 6 - - OZO 1021,2 4,4 6
20.02.2018 12:00:00 4,3 1,5 11 6 - - OZO 1020,9 5 0
20.02.2018 11:00:00 4,0 1,9 11 6 - - ZZO 1020,7 4,8 0
20.02.2018 10:00:00 3,9 1,7 14 8 - - ZO 1020,2 5 0
20.02.2018 09:00:00 3,8 1,9 11 6 - - ZO 1019,9 4,6 0
20.02.2018 08:00:00 3,8 2,3 11 6 - - ZO 1019,8 3,7 0
20.02.2018 07:00:00 3,8 2,1 7 4 - - ZO 1019,6 4,7 0
20.02.2018 06:00:00 3,8 2,1 7 4 - - OZO 1019,5 4,5 0
20.02.2018 05:00:00 3,9 2,0 4 2 - - ZZO 1019,6 5 0
20.02.2018 04:00:00 3,8 2,1 4 2 - - Z 1019,7 4,9 0
20.02.2018 03:00:00 3,8 2,2 4 2 - - O 1019,5 4,6 0
20.02.2018 02:00:00 3,7 2,2 7 4 - - O 1019,3 3,6 0
20.02.2018 01:00:00 3,8 2,1 7 4 - - O 1019,4 4,9 0
20.02.2018 00:00:00 3,7 2,3 11 6 - - ONO 1019,2 3,7 0
19.02.2018 23:00:00 - - - - - - - - - -
19.02.2018 22:00:00 3,7 2,1 7 4 - - O 1019,3 4,2 0
19.02.2018 21:00:00 3,9 2,2 4 2 - - O 1019,5 5 0
19.02.2018 20:00:00 3,8 2,1 4 2 - - ZZO 1019,5 5 0

tt = temperatuur
td = dauwpunt
ff = windsnelheid
fx = windstoten
dd = windrichting
ppp = luchtdruk
vv = zicht
sd = Zonneschijnduur

Weerstations in de omgeving